DW3216 Weather Reports


Display with metric or nautical units.
time (UTC)temp
F
wind
direction
speed
MPH
gust
MPH
rain 1hr
in
rain 24hr
in
rain mn
in
humidity
%
barometer
mb
20180220195106 67 308 2.0 5.0 0.00 0.05 0.00 72 1025.3
20180220194606 67 353 2.0 7.0 0.00 0.05 0.00 72 1025.4
20180220194105 68 338 3.0 9.0 0.00 0.05 0.00 71 1025.4
20180220193605 68 299 1.0 3.0 0.00 0.05 0.00 72 1025.4
20180220193106 68 74 2.0 5.0 0.00 0.05 0.00 72 1025.4
20180220192606 67 67 1.0 6.0 0.00 0.05 0.00 73 1025.4
20180220192105 67 28 2.0 6.0 0.00 0.05 0.00 73 1025.4
20180220191606 67 38 2.0 7.0 0.00 0.05 0.00 73 1025.4
20180220191105 66 14 2.0 6.0 0.00 0.05 0.00 73 1025.3
20180220190605 66 81 1.0 3.0 0.00 0.05 0.00 73 1025.4
20180220190106 66 113 1.0 3.0 0.00 0.05 0.00 74 1025.4
20180220185606 66 55 2.0 5.0 0.00 0.05 0.00 74 1025.4
20180220185106 66 81 2.0 6.0 0.00 0.05 0.00 75 1025.5
20180220184606 65 54 2.0 6.0 0.00 0.05 0.00 75 1025.6
20180220184105 65 42 3.0 6.0 0.00 0.05 0.00 75 1025.5
20180220183605 65 78 2.0 5.0 0.00 0.05 0.00 77 1025.5
20180220183106 65 17 2.0 7.0 0.00 0.05 0.00 78 1025.5
20180220182606 64 68 2.0 5.0 0.00 0.05 0.00 79 1025.6
20180220182105 64 85 2.0 3.0 0.00 0.05 0.00 80 1025.7
20180220181606 63 113 2.0 3.0 0.00 0.05 0.00 81 1025.8
20180220181105 63 59 1.0 5.0 0.00 0.05 0.00 82 1026.0
20180220180606 63 101 2.0 3.0 0.00 0.05 0.00 83 1026.1
20180220180107 62 107 2.0 7.0 0.00 0.05 0.00 83 1026.1
20180220175605 62 66 3.0 7.0 0.00 0.05 0.00 84 1026.0
20180220175106 62 100 1.0 3.0 0.00 0.05 0.00 86 1026.0
20180220174604 62 1 2.0 6.0 0.00 0.05 0.00 87 1026.0
20180220174105 61 87 1.0 5.0 0.00 0.05 0.00 89 1026.0
20180220173606 61 86 3.0 6.0 0.00 0.05 0.00 89 1026.1
20180220173105 60 99 3.0 5.0 0.00 0.05 0.00 90 1026.3
20180220172605 60 98 2.0 3.0 0.00 0.05 0.00 91 1026.3
20180220172106 59 58 2.0 5.0 0.00 0.05 0.00 92 1026.5
20180220171606 59 48 1.0 3.0 0.00 0.05 0.00 92 1026.5
20180220171106 58 55 2.0 3.0 0.00 0.05 0.00 93 1026.6
20180220170605 58 55 2.0 3.0 0.00 0.05 0.00 93 1026.7
20180220170106 58 78 2.0 5.0 0.00 0.05 0.00 93 1026.8
20180220165605 58 65 1.0 3.0 0.00 0.05 0.00 94 1026.8
20180220165105 57 113 1.0 5.0 0.00 0.05 0.00 94 1026.9
20180220164605 57 77 2.0 5.0 0.00 0.05 0.00 94 1027.0
20180220164105 57 107 1.0 6.0 0.00 0.05 0.00 95 1027.1
20180220163606 57 94 3.0 6.0 0.00 0.05 0.00 95 1027.1
20180220163105 56 80 1.0 6.0 0.00 0.05 0.00 95 1027.1
20180220162606 56 84 1.0 3.0 0.00 0.05 0.00 95 1027.2
20180220162105 55 114 2.0 5.0 0.00 0.05 0.00 95 1027.2
20180220161607 55 88 4.0 9.0 0.00 0.05 0.00 95 1027.2
20180220161105 55 91 3.0 9.0 0.00 0.05 0.00 95 1027.4
20180220160605 55 103 2.0 5.0 0.00 0.05 0.00 95 1027.4
20180220160106 55 82 3.0 8.0 0.00 0.05 0.00 96 1027.5
20180220155606 54 94 3.0 9.0 0.00 0.05 0.00 96 1027.5
20180220155105 54 85 3.0 7.0 0.00 0.05 0.00 96 1027.5
20180220154605 54 80 2.0 6.0 0.00 0.05 0.00 96 1027.6
20180220154106 54 69 3.0 8.0 0.00 0.05 0.00 96 1027.5
20180220153605 54 59 3.0 9.0 0.00 0.05 0.00 96 1027.5
20180220153106 54 84 2.0 12.0 0.00 0.05 0.00 96 1027.4
20180220152606 54 97 1.0 6.0 0.00 0.05 0.00 96 1027.4
20180220152106 54 61 2.0 8.0 0.00 0.05 0.00 96 1027.5
20180220151606 54 75 3.0 8.0 0.00 0.05 0.00 96 1027.5
20180220151105 54 4 2.0 5.0 0.00 0.05 0.00 96 1027.6
20180220150606 53 85 2.0 7.0 0.00 0.05 0.00 96 1027.6
20180220150106 53 76 2.0 7.0 0.00 0.05 0.00 96 1027.5
20180220145605 53 51 3.0 7.0 0.00 0.05 0.00 96 1027.6
20180220145106 53 186 2.0 12.0 0.00 0.05 0.00 96 1027.5
20180220144605 53 79 2.0 7.0 0.00 0.05 0.00 96 1027.6
20180220144106 53 85 2.0 7.0 0.00 0.05 0.00 96 1027.5
20180220143605 53 80 2.0 6.0 0.00 0.05 0.00 96 1027.6
20180220143105 53 79 3.0 10.0 0.00 0.05 0.00 96 1027.6
20180220142605 53 87 1.0 6.0 0.00 0.05 0.00 96 1027.6
20180220142105 53 104 1.0 6.0 0.00 0.05 0.00 96 1027.4
20180220141606 53 98 1.0 7.0 0.00 0.05 0.00 96 1027.4
20180220141105 53 102 2.0 5.0 0.00 0.05 0.00 96 1027.5
20180220140606 52 68 2.0 3.0 0.00 0.05 0.00 96 1027.4
20180220140106 52 73 3.0 10.0 0.00 0.05 0.00 96 1027.4
20180220135605 52 128 1.0 3.0 0.00 0.05 0.00 96 1027.4
20180220135105 52 355 0.0 6.0 0.00 0.05 0.00 96 1027.4
20180220134605 52 152 2.0 5.0 0.00 0.05 0.00 96 1027.4
20180220134106 52 99 1.0 3.0 0.00 0.05 0.00 96 1027.4
20180220133605 52 98 2.0 3.0 0.00 0.05 0.00 96 1027.4
20180220133105 52 88 2.0 6.0 0.00 0.05 0.00 96 1027.4
20180220132605 52 62 3.0 6.0 0.00 0.05 0.00 96 1027.4
20180220132105 52 86 2.0 7.0 0.00 0.05 0.00 96 1027.4
20180220131606 52 72 1.0 3.0 0.00 0.05 0.00 96 1027.3
20180220131105 52 77 3.0 5.0 0.00 0.05 0.00 96 1027.4
20180220130606 52 75 3.0 8.0 0.00 0.05 0.00 96 1027.3
20180220130106 52 80 1.0 3.0 0.00 0.05 0.00 96 1027.5
20180220125605 52 117 2.0 7.0 0.00 0.05 0.00 96 1027.4
20180220125106 52 87 1.0 5.0 0.00 0.05 0.00 96 1027.3
20180220124605 52 26 1.0 3.0 0.00 0.05 0.00 96 1027.2
20180220124105 52 73 1.0 5.0 0.00 0.05 0.00 96 1027.1
20180220123605 52 123 0.0 3.0 0.00 0.05 0.00 96 1027.1
20180220123105 52 242 2.0 3.0 0.00 0.05 0.00 96 1027.1
20180220122607 52 83 2.0 5.0 0.00 0.05 0.00 96 1027.2
20180220122105 52 299 1.0 6.0 0.00 0.05 0.00 96 1027.1
20180220121605 52 88 2.0 3.0 0.00 0.05 0.00 96 1027.1
20180220121105 52 60 2.0 8.0 0.00 0.05 0.00 96 1026.9
20180220120605 52 91 3.0 7.0 0.00 0.05 0.00 96 1026.9
20180220120106 51 79 2.0 5.0 0.00 0.05 0.00 96 1026.8
20180220115605 51 88 1.0 3.0 0.00 0.05 0.00 96 1026.7
20180220115106 51 61 1.0 9.0 0.00 0.05 0.00 96 1026.7
20180220114606 51 159 1.0 7.0 0.00 0.05 0.00 96 1026.7
20180220114105 51 37 2.0 3.0 0.00 0.05 0.00 96 1026.7
20180220113605 51 43 2.0 5.0 0.00 0.05 0.00 96 1026.7
20180220113106 51 67 1.0 5.0 0.00 0.05 0.00 96 1026.5
20180220112606 51 57 2.0 5.0 0.00 0.05 0.00 95 1026.4
20180220112105 51 177 1.0 3.0 0.00 0.05 0.00 95 1026.5
20180220111605 51 47 1.0 3.0 0.00 0.05 0.00 95 1026.5
20180220111105 51 68 1.0 3.0 0.00 0.05 0.00 95 1026.4
20180220110605 51 77 1.0 3.0 0.00 0.05 0.00 95 1026.5
20180220110106 51 101 0.0 3.0 0.00 0.05 0.00 95 1026.3
20180220105605 51 110 2.0 5.0 0.00 0.05 0.00 95 1026.3
20180220105107 51 83 2.0 6.0 0.00 0.05 0.00 95 1026.2
20180220104605 51 70 2.0 6.0 0.00 0.05 0.00 95 1026.2
20180220104105 50 97 1.0 3.0 0.00 0.05 0.00 95 1026.2
20180220103605 50 68 1.0 3.0 0.00 0.05 0.00 95 1026.2
20180220103105 50 78 1.0 3.0 0.00 0.05 0.00 95 1026.2
20180220102606 50 143 1.0 3.0 0.00 0.05 0.00 95 1026.1
20180220102105 50 54 1.0 3.0 0.00 0.05 0.00 95 1026.1
20180220101606 50 358 1.0 3.0 0.00 0.05 0.00 95 1026.0
20180220101105 50 52 2.0 5.0 0.00 0.05 0.00 95 1026.1
20180220100605 50 77 3.0 5.0 0.00 0.05 0.00 95 1026.2
20180220100105 51 37 2.0 6.0 0.00 0.05 0.00 95 1026.1
20180220095605 50 96 2.0 5.0 0.00 0.05 0.00 95 1026.0
20180220095105 51 84 2.0 3.0 0.00 0.05 0.00 95 1026.0
20180220094605 50 78 4.0 9.0 0.00 0.05 0.00 95 1026.0
20180220094105 50 19 2.0 7.0 0.00 0.05 0.00 95 1026.0
20180220093605 50 82 2.0 7.0 0.00 0.05 0.00 95 1025.9
20180220093105 50 71 1.0 6.0 0.00 0.05 0.00 95 1025.9
20180220092605 51 82 1.0 3.0 0.00 0.05 0.00 95 1025.8
20180220092106 51 10 1.0 3.0 0.00 0.05 0.00 95 1025.7
20180220091605 51 60 1.0 5.0 0.00 0.05 0.00 95 1025.8
20180220091105 51 343 1.0 3.0 0.00 0.05 0.00 95 1025.8
20180220090606 51 107 2.0 5.0 0.00 0.05 0.00 95 1025.8
20180220090106 51 64 2.0 6.0 0.00 0.05 0.00 95 1025.8
20180220085605 51 57 1.0 3.0 0.00 0.05 0.00 95 1025.7
20180220085105 51 73 1.0 8.0 0.00 0.05 0.00 95 1025.7
20180220084605 51 89 3.0 9.0 0.00 0.05 0.00 95 1025.7
20180220084105 51 62 3.0 7.0 0.00 0.05 0.00 95 1025.6
20180220083606 51 74 2.0 5.0 0.00 0.05 0.00 95 1025.5
20180220083105 51 78 3.0 8.0 0.00 0.05 0.00 95 1025.6
20180220082605 51 93 3.0 8.0 0.00 0.05 0.00 95 1025.6
20180220082106 51 75 2.0 5.0 0.00 0.05 0.00 95 1025.8
20180220081605 51 81 2.0 6.0 0.00 0.05 0.00 95 1025.8
20180220081106 51 104 4.0 7.0 0.00 0.05 0.00 95 1025.8
20180220080605 51 53 3.0 9.0 0.00 0.05 0.00 95 1025.9
20180220080106 51 65 2.0 7.0 0.00 0.05 0.00 95 1026.0
20180220075605 51 66 1.0 5.0 0.00 0.05 0.00 95 1026.0
20180220075106 51 110 1.0 12.0 0.00 0.05 0.00 95 1026.0
20180220074605 51 66 2.0 5.0 0.00 0.05 0.00 95 1026.0
20180220074105 51 90 3.0 6.0 0.00 0.05 0.00 95 1025.9
20180220073605 51 47 2.0 6.0 0.00 0.05 0.00 95 1026.1
20180220073105 51 74 4.0 8.0 0.00 0.05 0.00 95 1026.1
20180220072605 50 89 1.0 3.0 0.00 0.05 0.00 95 1026.2
20180220072105 50 79 2.0 6.0 0.00 0.05 0.00 95 1026.1
20180220071605 50 296 1.0 3.0 0.00 0.05 0.00 95 1026.1
20180220071105 50 11 1.0 5.0 0.00 0.05 0.00 95 1026.2
20180220070605 50 20 0.0 3.0 0.00 0.05 0.00 95 1026.2
20180220070106 50 44 1.0 3.0 0.00 0.05 0.00 94 1026.2
20180220065605 50 27 0.0 0.0 0.00 0.05 0.00 94 1026.3
20180220065105 50 27 0.0 1.0 0.00 0.05 0.00 95 1026.2
20180220064605 50 27 0.0 1.0 0.00 0.05 0.00 95 1026.2
20180220064105 50 27 1.0 3.0 0.00 0.05 0.00 94 1026.2
20180220063605 50 77 2.0 5.0 0.00 0.05 0.00 95 1026.1
20180220063105 49 347 1.0 3.0 0.00 0.05 0.00 94 1026.2
20180220062605 49 61 1.0 2.0 0.00 0.05 0.00 95 1026.3
20180220062105 48 29 1.0 2.0 0.00 0.05 0.00 94 1026.3
20180220061605 48 340 0.0 2.0 0.00 0.05 0.00 94 1026.3
20180220061105 48 330 0.0 1.0 0.00 0.05 0.00 94 1026.4
20180220060605 48 330 0.0 0.0 0.00 0.05 0.00 94 1026.3
20180220060106 48 330 0.0 0.0 0.00 0.05 0.00 94 1026.5
20180220055605 48 330 0.0 0.0 0.00 0.05 0.00 94 1026.5
20180220055105 48 330 0.0 1.0 0.00 0.05 0.00 94 1026.5
20180220054605 48 330 0.0 0.0 0.00 0.05 0.00 94 1026.4
20180220054105 48 330 0.0 0.0 0.00 0.05 0.00 94 1026.4
20180220053605 48 330 0.0 0.0 0.00 0.05 0.00 94 1026.4
20180220053105 48 330 0.0 1.0 0.00 0.05 0.00 94 1026.3
20180220052605 48 330 0.0 1.0 0.01 0.05 0.00 94 1026.3
20180220052105 48 330 0.0 0.0 0.01 0.05 0.00 94 1026.3
20180220051605 48 330 0.0 1.0 0.01 0.05 0.00 94 1026.4
20180220051105 48 330 0.0 1.0 0.01 0.05 0.00 94 1026.4
20180220050605 47 330 0.0 1.0 0.01 0.05 0.00 93 1026.4
20180220050105 47 330 0.0 1.0 0.01 0.05 0.00 93 1026.4
20180220045605 47 330 0.0 1.0 0.01 0.05 0.05 93 1026.4
20180220045105 47 330 0.0 0.0 0.01 0.05 0.05 93 1026.4
20180220044605 47 330 0.0 0.0 0.01 0.05 0.05 93 1026.4
20180220044105 47 330 0.0 0.0 0.01 0.05 0.05 93 1026.6
20180220043605 47 330 0.0 0.0 0.01 0.05 0.05 93 1026.9
20180220043105 47 330 0.0 0.0 0.01 0.05 0.05 93 1026.7
20180220042605 47 330 0.0 0.0 0.01 0.05 0.05 93 1026.8
20180220042106 47 330 0.0 0.0 0.00 0.04 0.04 93 1026.8
20180220041605 47 330 0.0 0.0 0.00 0.04 0.04 93 1027.0
20180220041105 47 330 0.0 0.0 0.00 0.04 0.04 93 1027.1
20180220040605 47 330 0.0 0.0 0.00 0.04 0.04 93 1027.2
20180220040106 47 330 0.0 0.0 0.00 0.04 0.04 93 1027.3
20180220035605 47 330 0.0 0.0 0.00 0.04 0.04 93 1027.3
20180220035105 47 330 0.0 0.0 0.00 0.04 0.04 93 1027.2
20180220034604 47 330 0.0 0.0 0.00 0.04 0.04 93 1027.2
20180220034104 47 330 0.0 0.0 0.00 0.04 0.04 93 1027.2
20180220033605 47 330 0.0 0.0 0.00 0.04 0.04 93 1027.3
20180220033105 47 330 0.0 0.0 0.00 0.04 0.04 93 1027.3
20180220032605 48 330 0.0 0.0 0.00 0.04 0.04 93 1027.4
20180220032105 47 330 0.0 0.0 0.00 0.04 0.04 93 1027.4
20180220031605 47 330 0.0 1.0 0.00 0.04 0.04 93 1027.3
20180220031105 47 330 0.0 1.0 0.00 0.04 0.04 93 1027.2
20180220030605 47 330 0.0 1.0 0.00 0.04 0.04 93 1027.2
20180220030106 47 318 0.0 0.0 0.00 0.04 0.04 93 1027.1
20180220025605 47 317 0.0 3.0 0.00 0.04 0.04 93 1027.0
20180220025105 47 340 0.0 2.0 0.00 0.04 0.04 93 1027.1
20180220024605 47 340 0.0 1.0 0.00 0.04 0.04 92 1027.2
20180220024105 47 335 0.0 2.0 0.00 0.04 0.04 92 1027.1
20180220023606 47 327 0.0 1.0 0.00 0.04 0.04 92 1027.1
20180220023105 47 325 1.0 2.0 0.00 0.04 0.04 92 1027.1
20180220022605 47 329 0.0 1.0 0.00 0.04 0.04 92 1027.3
20180220022105 47 327 0.0 2.0 0.00 0.04 0.04 92 1027.2
20180220021604 47 331 0.0 1.0 0.00 0.04 0.04 92 1027.3
20180220021105 47 331 0.0 1.0 0.00 0.04 0.04 92 1027.3
20180220020604 48 331 0.0 1.0 0.01 0.04 0.04 92 1027.5
20180220020106 48 331 0.0 2.0 0.01 0.04 0.04 92 1027.5
20180220015605 48 330 1.0 2.0 0.02 0.04 0.04 92 1027.5
20180220015105 48 334 1.0 2.0 0.02 0.04 0.04 92 1027.6
20180220014604 48 334 0.0 1.0 0.02 0.04 0.04 92 1027.6
20180220014105 48 333 0.0 1.0 0.02 0.04 0.04 92 1027.6
20180220013605 48 333 0.0 1.0 0.02 0.04 0.04 92 1027.8
20180220013104 48 333 0.0 1.0 0.02 0.04 0.04 92 1027.8
20180220012605 48 333 0.0 1.0 0.02 0.04 0.04 91 1027.9
20180220012105 48 333 0.0 1.0 0.02 0.04 0.04 91 1027.8
20180220011604 48 333 0.0 1.0 0.02 0.04 0.04 91 1027.8
20180220011105 48 333 0.0 1.0 0.02 0.04 0.04 91 1027.7
20180220010605 47 333 0.0 0.0 0.01 0.03 0.03 91 1027.6
20180220010105 47 333 0.0 1.0 0.01 0.03 0.03 91 1027.6
20180220005605 47 335 1.0 2.0 0.00 0.02 0.02 91 1027.3
20180220005105 47 325 0.0 2.0 0.00 0.02 0.02 91 1027.5
20180220004605 47 325 1.0 2.0 0.00 0.02 0.02 91 1027.5
20180220004105 47 317 0.0 2.0 0.00 0.02 0.02 91 1027.5
20180220003605 48 308 1.0 3.0 0.00 0.02 0.02 90 1027.3
20180220003104 48 295 1.0 3.0 0.00 0.02 0.02 90 1027.3
20180220002605 48 333 0.0 3.0 0.00 0.02 0.02 90 1027.2
20180220002105 48 344 1.0 2.0 0.00 0.02 0.02 90 1027.4
20180220001605 48 340 1.0 3.0 0.01 0.02 0.02 90 1027.4
20180220001105 48 353 1.0 3.0 0.01 0.02 0.02 90 1027.6
20180220000605 48 318 0.0 2.0 0.01 0.02 0.02 90 1027.7
20180220000105 48 314 0.0 5.0 0.01 0.02 0.02 90 1027.6
20180219235605 48 325 0.0 2.0 0.01 0.02 0.02 90 1027.6
20180219235105 48 348 2.0 3.0 0.01 0.02 0.02 90 1027.5
20180219234605 48 342 0.0 1.0 0.02 0.02 0.02 89 1027.6
20180219234105 48 340 0.0 1.0 0.02 0.02 0.02 89 1027.9
20180219233605 48 341 0.0 2.0 0.02 0.02 0.02 89 1028.1
20180219233105 48 323 0.0 3.0 0.02 0.02 0.02 89 1028.0
20180219232605 48 354 0.0 3.0 0.02 0.02 0.02 89 1028.0
20180219232105 49 354 0.0 5.0 0.02 0.02 0.02 89 1028.1
20180219231605 49 335 1.0 5.0 0.01 0.01 0.01 88 1028.1
20180219231105 49 341 2.0 5.0 0.01 0.01 0.01 88 1028.1
20180219230605 49 305 0.0 3.0 0.01 0.01 0.01 88 1028.0
20180219230105 49 338 0.0 1.0 0.01 0.01 0.01 88 1028.2
20180219225605 49 336 0.0 2.0 0.01 0.01 0.01 88 1028.3
20180219225128 49 18 1.0 3.0 0.01 0.01 0.01 87 1028.3
20180219224605 49 310 2.0 5.0 0.00 0.00 0.00 87 1028.4
20180219224105 49 339 1.0 2.0 0.00 0.00 0.00 87 1028.4
20180219223605 49 20 1.0 3.0 0.00 0.00 0.00 86 1028.3
20180219223104 49 305 1.0 3.0 0.00 0.00 0.00 86 1028.3
20180219222605 49 36 1.0 3.0 0.00 0.00 0.00 86 1028.3
20180219222105 49 101 1.0 5.0 0.00 0.00 0.00 86 1028.3
20180219221605 49 9 1.0 3.0 0.00 0.00 0.00 85 1028.2
20180219221105 49 235 1.0 6.0 0.00 0.00 0.00 85 1028.1
20180219220605 49 324 2.0 6.0 0.00 0.00 0.00 85 1028.0
20180219220105 49 342 1.0 2.0 0.00 0.00 0.00 84 1028.0
20180219215605 49 304 1.0 6.0 0.00 0.00 0.00 84 1028.1
20180219215104 49 338 2.0 5.0 0.00 0.00 0.00 84 1028.2
20180219214605 49 336 2.0 6.0 0.00 0.00 0.00 84 1028.2
20180219214105 49 345 2.0 6.0 0.00 0.00 0.00 84 1028.3
20180219213604 49 7 1.0 3.0 0.00 0.00 0.00 83 1028.5
20180219213104 49 107 1.0 3.0 0.00 0.00 0.00 83 1028.6
20180219212605 49 351 1.0 3.0 0.00 0.00 0.00 83 1028.5
20180219212104 49 330 2.0 5.0 0.00 0.00 0.00 82 1028.6
20180219211604 49 40 0.0 2.0 0.00 0.00 0.00 82 1028.7
20180219211105 49 342 1.0 3.0 0.00 0.00 0.00 82 1028.8
20180219210605 49 286 1.0 3.0 0.00 0.00 0.00 81 1029.0
20180219210106 49 317 1.0 3.0 0.00 0.00 0.00 81 1029.1
20180219205604 49 47 0.0 3.0 0.00 0.00 0.00 81 1029.1
20180219205120 49 347 1.0 3.0 0.00 0.00 0.00 81 1029.3
20180219204605 49 333 0.0 3.0 0.00 0.00 0.00 80 1029.4
20180219204105 49 97 1.0 5.0 0.00 0.00 0.00 80 1029.4
20180219203605 49 53 0.0 3.0 0.00 0.00 0.00 80 1029.3
20180219203105 49 18 1.0 3.0 0.00 0.00 0.00 80 1029.3
20180219202605 49 344 1.0 2.0 0.00 0.00 0.00 80 1029.4
20180219202104 49 322 2.0 5.0 0.00 0.00 0.00 80 1029.3
20180219201604 48 17 0.0 2.0 0.00 0.00 0.00 80 1029.2
20180219201105 48 80 2.0 6.0 0.00 0.00 0.00 80 1029.3
20180219200604 48 345 1.0 5.0 0.00 0.00 0.00 80 1029.3
20180219200105 48 332 1.0 5.0 0.00 0.00 0.00 79 1029.4
20180219195605 48 324 3.0 6.0 0.00 0.00 0.00 79 1029.5